Flag for China Weather past 2 weeks in Changchun, Jilin, China

Now
73 °F

Passing clouds.


Feels Like: 73 °F
Forecast: 68 / 79 °F
Wind: 3 mph from South

Location: Changchun Airport

Current Time: Aug 1, 2015 at 10:40:18 PM

Latest Report: Aug 1, 2015 at 10:00 PM


Visibility: N/A

Pressure: 29.74 "Hg

Humidity: 83%

Dew point: 68 °F

Location of ChangchunLocation

Historic Weather in Changchun — Graph

°F

Changchun temperature yesterday

Maximum temperature yesterday: 86 °F (at 3:00 PM)
Minimum temperature yesterday: 64 °F (at 4:00 AM)
Average temperature yesterday: 75 °F

Past Weeks' High & Low Weather Summary

 TemperatureHumidityPressure
High90 °F (Jul 19, 2:00 PM)94% (Jul 18, 1:00 AM)29.86 "Hg (Jul 18, 1:00 AM)
Low59 °F (Jul 18, 3:00 AM)29% (Jul 27, 1:00 PM)29.53 "Hg (Jul 25, 7:00 PM)
Average76 °F67%29.71 "Hg
* Reported Jul 17 9:00 PM — Aug 1 9:00 PM, Changchun, Weather by CustomWeather, © 2015

Note: Actual official high and low records may vary slightly from our data, if they occured in-between our weather recording intervals... More about our weather records

Advertising

Changchun weather history for previous 24 hours

 ConditionsComfort  
Time TempWeatherWind HumidityBarometerVisibility
9:00 PM
Sat, Aug 1
75 °FClear.3 mph78%29.74 "Hg10 mi
8:00 PM77 °FPassing clouds.6 mph74%29.74 "HgN/A
7:00 PM79 °FSunny.6 mph65%29.74 "Hg10 mi
6:00 PM82 °FScattered clouds.6 mph58%29.74 "HgN/A
5:00 PM84 °FScattered clouds.6 mph55%29.74 "HgN/A
4:00 PM86 °FScattered clouds.8 mph52%29.74 "HgN/A
3:00 PM86 °FScattered clouds.8 mph49%29.77 "HgN/A
2:00 PM86 °FScattered clouds.8 mph52%29.77 "HgN/A
1:00 PM84 °FScattered clouds.8 mph58%29.80 "HgN/A
12:00 PM84 °FScattered clouds.6 mph58%29.80 "HgN/A
11:00 AM82 °FPassing clouds.3 mph62%29.80 "HgN/A
10:00 AM82 °FSunny.3 mph62%29.83 "Hg10 mi
9:00 AM81 °FSunny.3 mph62%29.83 "Hg10 mi
8:00 AM77 °FPassing clouds.3 mph69%29.83 "HgN/A
7:00 AM73 °FSunny.3 mph78%29.83 "Hg10 mi
6:00 AM68 °FSunny.1 mph94%29.80 "Hg10 mi
5:00 AM64 °FSunny.No wind94%29.80 "Hg10 mi
4:00 AM64 °FClear.No wind94%29.80 "Hg10 mi
3:00 AM66 °FClear.No wind88%29.80 "Hg10 mi
2:00 AM66 °FClear.No wind88%29.80 "Hg10 mi
1:00 AM66 °FClear.No wind88%29.80 "Hg10 mi
12:00 AM68 °FClear.1 mph83%29.80 "Hg10 mi
11:00 PM
Fri, Jul 31
70 °FClear.1 mph78%29.80 "Hg10 mi
10:00 PM70 °FClear.3 mph83%29.83 "Hg10 mi
Weather by CustomWeather, © 2015

See weather overviewHow to use our weather pages